Location: ???????????
(55.5758°N, 38.4970°E)
Time: 17:01:00
(UTC+00:00)

Cosmos 2333 Rocket - Pass Details

Date: 15 November 2025
Orbit: 837 x 865 km, 70.8° (Epoch: 14 December)

Event Time Altitude Azimuth Distance (km) Brightness Sun altitude
Exits shadow 03:59:29 - 317° (NW) 2,754 4.3 -8.6°
Reaches altitude 10° 04:00:26 10° 324° (NW) 2,512 4.2 -8.4°
Maximum altitude 04:04:21 18° 7° (N) 1,989 4.0 -7.9°
Drops below altitude 10° 04:08:17 10° 50° (NE) 2,517 5.1 -7.4°
Sets 04:11:36 0° 69° (ENE) 3,455 6.2 -7.0°
